Casper, WY

9:29 PM MDT on May 24, 2017 (GMT -0600)
Natrona County International

Weather History for KCPR - January, 2014

Change the Weather History Date:

Saturday, January 18, 2014

  Actual Average Record
Temperature  
Mean Temperature 32 °F 25 °F  
Max Temperature 39 °F 35 °F 54 °F (1999)
Min Temperature 25 °F 15 °F -30 °F (1943)
Degree Days  
Heating Degree Days 33 40  
Month to date heating degree days 736 725  
Since 1 July heating degree days 3956 3854  
Cooling Degree Days 0 0  
Month to date cooling degree days 0 0  
Year to date cooling degree days 0 0  
Moisture  
Dew Point 18 °F    
Average Humidity 58    
Maximum Humidity 68    
Minimum Humidity 48    
Precipitation  
Precipitation 0.00 in 0.01 in 0.12 in (1980)
Month to date precipitation 0.58 0.29  
Year to date precipitation 0.58 0.29  
Snow  
Snow 0.00 in 0.30 in - ()
Month to date snowfall 10.2 5.4  
Since 1 July snowfall 50.7 35.9  
Snow Depth T in    
Sea Level Pressure  
Sea Level Pressure 30.23 in    
Wind  
Wind Speed 17 mph (SW)    
Max Wind Speed 30 mph    
Max Gust Speed 37 mph    
Visibility 10 miles    
Events      
T = Trace of Precipitation, MM = Missing Value Source: NWS Daily Summary

Daily Weather History Graph

Daily Weather History Graph

Search for Another Location

Airport or City:

Trip Planner

Search our weather history database for the weather conditions in past years. The results will help you decide how hot, cold, wet, or windy it might be!

Date:

Astronomy

Jan. 18, 2014 Rise Set
Actual Time 7:32 AM MST 5:00 PM MST
Civil Twilight 7:01 AM MST 5:31 PM MST
Nautical Twilight 6:26 AM MST 6:06 PM MST
Astronomical Twilight 5:52 AM MST 6:40 PM MST
Moon 7:50 PM MST (1/18) 8:28 AM MST (1/18)
Length of Visible Light 10h 30m
Length of Day
9h 28m
Waning Gibbous, 94% of the Moon is Illuminated
Jan 18
Waning Gibbous
Jan 23
Last Quarter
Jan 30
New
Feb 6
First Quarter
Feb 14
Full

Hourly Weather History & Observations

Time (MST) Temp. Windchill Dew Point Humidity Pressure Visibility Wind Dir Wind Speed Gust Speed Precip Events Conditions
12:53 AM 28.9 °F 19.2 °F 15.1 °F 56% 30.20 in 10.0 mi West 11.5 mph - N/A   Clear
1:53 AM 26.1 °F 15.6 °F 15.1 °F 63% 30.21 in 10.0 mi West 11.5 mph - N/A   Clear
2:53 AM 27.0 °F 15.2 °F 15.1 °F 61% 30.22 in 10.0 mi WSW 15.0 mph - N/A   Clear
3:53 AM 26.1 °F 15.6 °F 15.1 °F 63% 30.23 in 10.0 mi WSW 11.5 mph - N/A   Clear
4:53 AM 25.0 °F 13.6 °F 15.1 °F 66% 30.25 in 10.0 mi WSW 12.7 mph - N/A   Clear
5:53 AM 27.0 °F 16.7 °F 15.1 °F 61% 30.25 in 10.0 mi WSW 11.5 mph - N/A   Clear
6:53 AM 28.0 °F 17.0 °F 16.0 °F 61% 30.28 in 10.0 mi WSW 13.8 mph - N/A   Clear
7:53 AM 28.0 °F 17.5 °F 16.0 °F 61% 30.31 in 10.0 mi WSW 12.7 mph - N/A   Clear
8:53 AM 28.9 °F 18.2 °F 16.0 °F 58% 30.33 in 10.0 mi SW 13.8 mph - N/A   Clear
9:53 AM 32.0 °F 20.8 °F 18.0 °F 56% 30.34 in 10.0 mi SW 17.3 mph - N/A   Clear
10:53 AM 35.1 °F 24.5 °F 19.0 °F 52% 30.34 in 10.0 mi SW 18.4 mph - N/A   Clear
11:53 AM 35.1 °F 23.8 °F 19.9 °F 54% 30.32 in 10.0 mi SSW 20.7 mph - N/A   Clear
12:53 PM 37.0 °F 26.7 °F 21.0 °F 52% 30.27 in 10.0 mi SW 19.6 mph - N/A   Clear
1:53 PM 37.9 °F - 21.0 °F 51% 30.25 in 10.0 mi North - - N/A   Clear
2:53 PM 39.0 °F 29.9 °F 21.0 °F 49% 30.22 in 10.0 mi SSW 17.3 mph - N/A   Clear
3:53 PM 37.9 °F - 19.9 °F 48% 30.21 in 10.0 mi North - - N/A   Clear
4:53 PM 36.0 °F - 19.9 °F 52% 30.20 in 10.0 mi North - - N/A   Clear
5:53 PM 34.0 °F 23.8 °F 19.9 °F 56% 30.21 in 10.0 mi SW 16.1 mph - N/A   Clear
6:53 PM 34.0 °F 22.4 °F 19.9 °F 56% 30.20 in 10.0 mi SW 20.7 mph - N/A   Clear
7:53 PM 35.1 °F 23.0 °F 19.9 °F 54% 30.16 in 10.0 mi SW 24.2 mph 31.1 mph N/A   Clear
8:53 PM 34.0 °F 21.5 °F 19.9 °F 56% 30.16 in 10.0 mi SSW 24.2 mph 35.7 mph N/A   Clear
9:53 PM 34.0 °F 22.1 °F 19.0 °F 54% 30.15 in 10.0 mi SW 21.9 mph 31.1 mph N/A   Clear
10:53 PM 33.1 °F 20.1 °F 19.0 °F 56% 30.16 in 10.0 mi SW 25.3 mph - N/A   Clear
11:53 PM 32.0 °F 19.5 °F 19.0 °F 59% 30.13 in 10.0 mi SW 21.9 mph 28.8 mph N/A   Clear